This is the latest recevied weather packets stored in our database for station/object CQ0XCH-11. If no packets are shown the sender has not sent any weather packets the latest 1 day(s).
| Time | Temp. | Humidity | Pressure | Rain* | Wind** | Luminosity | Snow |
|---|---|---|---|---|---|---|---|
| 1778082000 | 26.11° C | 18% | 989.6 hPa | 0 mm | - | - | - |
| 1778081865 | 26.67° C | 18% | 989.6 hPa | 0 mm | - | - | - |
| 1778081778 | 26.67° C | 17% | 989.6 hPa | 0 mm | - | - | - |
| 1778081623 | 26.67° C | 16% | 989.6 hPa | 0 mm | - | - | - |
| 1778081393 | 27.22° C | 16% | 989.5 hPa | 0 mm | - | - | - |
| 1778080758 | 27.78° C | 15% | 989.7 hPa | 0 mm | - | - | - |
| 1778080387 | 27.78° C | 16% | 989.8 hPa | 0 mm | - | - | - |
| 1778079652 | 27.22° C | 16% | 989.9 hPa | 0 mm | - | - | - |
| 1778079159 | 26.11° C | 17% | 990.1 hPa | 0 mm | - | - | - |
| 1778078913 | 26.11° C | 17% | 990.1 hPa | 0 mm | - | - | - |
| 1778078676 | 26.67° C | 17% | 990.3 hPa | 0 mm | - | - | - |
| 1778078174 | 27.22° C | 16% | 990.4 hPa | 0 mm | - | - | - |
| 1778078060 | 27.22° C | 15% | 990.4 hPa | 0 mm | - | - | - |
| 1778077689 | 27.78° C | 15% | 990.4 hPa | 0 mm | - | - | - |
| 1778077074 | 27.22° C | 15% | 990.5 hPa | 0 mm | - | - | - |
| 1778076581 | 27.22° C | 15% | 990.6 hPa | 0 mm | - | - | - |
| 1778076443 | 27.22° C | 16% | 990.6 hPa | 0 mm | - | - | - |
| 1778076138 | 26.67° C | 17% | 990.7 hPa | 0 mm | - | - | - |
| 1778075956 | 26.67° C | 17% | 990.8 hPa | 0 mm | - | - | - |
| 1778075842 | 26.67° C | 17% | 990.8 hPa | 0 mm | - | - | - |
| 1778075704 | 27.22° C | 17% | 990.8 hPa | 0 mm | - | - | - |
| 1778075241 | 26.11° C | 18% | 990.9 hPa | 0 mm | - | - | - |
| 1778073873 | 26.67° C | 18% | 991.2 hPa | 0 mm | - | - | - |
| 1778072377 | 27.22° C | 18% | 991.5 hPa | 0 mm | - | - | - |
| 1778071297 | 26.11° C | 19% | 991.7 hPa | 0 mm | - | - | - |
* Rain since midnight (hover to see other rain measurements)
** Current wind speed in m/s (hover to see current wind gust speed)